Station Historical Data
Daily Summary for June 1, 2012 Units:  English    Metric   Both
« Previous Day
Next Day »
Daily Weekly Monthly Yearly Custom
  High: Low: Average:
Temperature: 66.2 °F 54.0 °F 61.5 °F
Dew Point: 64.1 °F 52.3 °F 56.5 °F
Humidity: 95% 65% 84%
Wind Speed: 15.0mph 0.0mph 4.6mph
Wind Gust: 18.0mph - -
Wind- - West
Pressure: 29.92 in 29.67 in -
Precipitation: 0.05 in    
Historical Graphs
 
 
Tabular Data for June 1, 2012
Time Temperature Dew Point Pressure Wind Wind Speed Wind Gust Humidity Rainfall Rate (Hourly) Conditions
00:00 65.5 °F 62.5 °F 29.70 in SSE 2.0 mph 6.0 mph 90% 0.00 in
00:05 65.5 °F 62.5 °F 29.71 in SSE 1.0 mph 3.0 mph 90% 0.00 in
00:10 65.5 °F 62.5 °F 29.71 in West 1.0 mph 2.0 mph 90% 0.00 in
00:15 65.6 °F 62.9 °F 29.71 in Calm   2.0 mph 91% 0.00 in
00:20 65.6 °F 62.9 °F 29.72 in SSW 1.0 mph 2.0 mph 91% 0.00 in
00:25 65.7 °F 63.0 °F 29.72 in WSW 1.0 mph 2.0 mph 91% 0.00 in
00:31 65.7 °F 63.0 °F 29.73 in Calm   1.0 mph 91% 0.00 in
00:36 65.6 °F 62.9 °F 29.73 in Calm     91% 0.00 in
00:41 65.6 °F 62.9 °F 29.73 in West 1.0 mph 2.0 mph 91% 0.00 in
00:46 65.6 °F 62.9 °F 29.73 in West 1.0 mph 3.0 mph 91% 0.00 in
00:51 65.6 °F 62.9 °F 29.73 in SW 3.0 mph 3.0 mph 91% 0.00 in
00:56 65.6 °F 62.9 °F 29.73 in SW 2.0 mph 3.0 mph 91% 0.00 in
01:01 65.6 °F 62.9 °F 29.72 in SSW 1.0 mph 3.0 mph 91% 0.00 in
01:06 65.5 °F 63.1 °F 29.72 in SW 2.0 mph 3.0 mph 92% 0.00 in
01:11 65.6 °F 63.2 °F 29.72 in SW 3.0 mph 5.0 mph 92% 0.00 in
01:16 65.6 °F 63.2 °F 29.71 in SSE 1.0 mph 2.0 mph 92% 0.00 in
01:21 65.6 °F 63.2 °F 29.72 in SW 2.0 mph 5.0 mph 92% 0.00 in
01:26 65.6 °F 62.9 °F 29.71 in SSW 2.0 mph 5.0 mph 91% 0.00 in
01:31 65.6 °F 62.9 °F 29.71 in WSW 3.0 mph 5.0 mph 91% 0.00 in
01:36 65.6 °F 62.9 °F 29.71 in SSW 2.0 mph 5.0 mph 91% 0.00 in
01:41 65.6 °F 62.9 °F 29.70 in SSW 4.0 mph 7.0 mph 91% 0.00 in
01:46 65.6 °F 62.9 °F 29.70 in SW 2.0 mph 7.0 mph 91% 0.00 in
01:51 65.6 °F 62.9 °F 29.70 in WSW 3.0 mph 5.0 mph 91% 0.00 in
01:56 65.6 °F 62.9 °F 29.70 in SW 4.0 mph 5.0 mph 91% 0.00 in
02:01 65.6 °F 62.9 °F 29.70 in SSW 5.0 mph 6.0 mph 91% 0.00 in
02:06 65.6 °F 62.9 °F 29.69 in SSW 1.0 mph 3.0 mph 91% 0.00 in
02:11 65.6 °F 62.9 °F 29.69 in SW 3.0 mph 4.0 mph 91% 0.00 in
02:16 65.5 °F 63.1 °F 29.69 in WSW 2.0 mph 3.0 mph 92% 0.00 in
02:21 65.5 °F 63.1 °F 29.69 in SSW 3.0 mph 4.0 mph 92% 0.00 in
02:26 65.5 °F 63.1 °F 29.69 in SSW 2.0 mph 4.0 mph 92% 0.00 in
02:31 65.5 °F 63.1 °F 29.69 in SSW 1.0 mph 3.0 mph 92% 0.00 in
02:36 65.4 °F 63.0 °F 29.69 in SSE 3.0 mph 3.0 mph 92% 0.00 in
02:41 65.4 °F 63.0 °F 29.69 in SW 4.0 mph 4.0 mph 92% 0.00 in
02:46 65.4 °F 63.0 °F 29.68 in SSE 3.0 mph 4.0 mph 92% 0.00 in
02:51 65.4 °F 63.0 °F 29.68 in SSW 2.0 mph 5.0 mph 92% 0.00 in
02:56 65.4 °F 63.0 °F 29.69 in SW 3.0 mph 5.0 mph 92% 0.00 in
03:01 65.5 °F 63.1 °F 29.68 in SW 7.0 mph 7.0 mph 92% 0.00 in
03:06 65.6 °F 63.2 °F 29.69 in SW 3.0 mph 8.0 mph 92% 0.00 in
03:11 65.6 °F 63.2 °F 29.68 in SW 7.0 mph 8.0 mph 92% 0.00 in
03:16 65.7 °F 63.3 °F 29.68 in SSW 1.0 mph 8.0 mph 92% 0.00 in
03:22 65.8 °F 63.7 °F 29.68 in SW 5.0 mph 7.0 mph 93% 0.00 in
03:27 65.8 °F 63.4 °F 29.68 in SSW 4.0 mph 7.0 mph 92% 0.00 in
03:32 65.9 °F 63.8 °F 29.68 in SW 7.0 mph 9.0 mph 93% 0.00 in
03:37 65.9 °F 63.8 °F 29.68 in SSW 5.0 mph 7.0 mph 93% 0.00 in
03:42 66.0 °F 63.9 °F 29.68 in SW 5.0 mph 11.0 mph 93% 0.00 in
03:47 66.0 °F 63.9 °F 29.68 in South 7.0 mph 10.0 mph 93% 0.00 in
03:52 66.1 °F 64.0 °F 29.67 in SSW 8.0 mph 11.0 mph 93% 0.00 in
03:57 66.2 °F 64.1 °F 29.68 in WSW 3.0 mph 8.0 mph 93% 0.00 in
04:02 66.2 °F 64.1 °F 29.68 in WSW 4.0 mph 9.0 mph 93% 0.00 in
04:07 66.2 °F 64.1 °F 29.67 in WSW 6.0 mph 8.0 mph 93% 0.00 in
04:12 66.2 °F 64.1 °F 29.67 in SW 6.0 mph 10.0 mph 93% 0.00 in
04:17 66.1 °F 64.0 °F 29.67 in WSW 6.0 mph 10.0 mph 93% 0.00 in
04:22 66.0 °F 63.9 °F 29.68 in WSW 6.0 mph 9.0 mph 93% 0.00 in
04:27 65.9 °F 63.8 °F 29.68 in SW 5.0 mph 7.0 mph 93% 0.00 in
04:32 65.9 °F 64.1 °F 29.68 in WSW 5.0 mph 7.0 mph 94% 0.00 in
04:37 65.8 °F 64.0 °F 29.68 in WSW 2.0 mph 6.0 mph 94% 0.00 in
04:42 65.8 °F 64.0 °F 29.68 in WSW 3.0 mph 8.0 mph 94% 0.00 in
04:47 65.8 °F 64.0 °F 29.67 in WSW 3.0 mph 9.0 mph 94% 0.00 in
04:52 65.7 °F 63.9 °F 29.68 in WSW 5.0 mph 7.0 mph 94% 0.09 in
04:57 65.6 °F 63.8 °F 29.68 in NW 10.0 mph 18.0 mph 94% 0.47 in
05:02 63.5 °F 61.1 °F 29.69 in NW 15.0 mph 16.0 mph 92% 0.10 in
05:07 61.9 °F 59.9 °F 29.69 in NW 8.0 mph 17.0 mph 93% 0.10 in
05:12 61.2 °F 59.2 °F 29.70 in WNW 11.0 mph 13.0 mph 93% 0.06 in
05:17 60.8 °F 58.8 °F 29.70 in NW 8.0 mph 13.0 mph 93% 0.04 in
05:22 60.7 °F 58.7 °F 29.70 in WNW 9.0 mph 11.0 mph 93% 0.00 in
05:27 60.7 °F 58.7 °F 29.70 in NNW 5.0 mph 13.0 mph 93% 0.00 in
05:32 60.6 °F 58.6 °F 29.70 in NW 8.0 mph 10.0 mph 93% 0.00 in
05:38 60.6 °F 58.6 °F 29.70 in West 6.0 mph 8.0 mph 93% 0.00 in
05:43 60.5 °F 58.5 °F 29.70 in NW 3.0 mph 6.0 mph 93% 0.00 in
05:48 60.4 °F 58.7 °F 29.70 in NW 3.0 mph 4.0 mph 94% 0.00 in
05:53 60.4 °F 58.7 °F 29.70 in NW 2.0 mph 5.0 mph 94% 0.00 in
05:58 60.3 °F 58.6 °F 29.71 in NW 3.0 mph 6.0 mph 94% 0.00 in
06:03 60.3 °F 58.6 °F 29.71 in NW 2.0 mph 6.0 mph 94% 0.00 in
06:08 60.3 °F 58.6 °F 29.71 in WNW 4.0 mph 6.0 mph 94% 0.00 in
06:13 60.3 °F 58.6 °F 29.71 in WNW 4.0 mph 5.0 mph 94% 0.00 in
06:18 60.3 °F 58.6 °F 29.71 in NW 4.0 mph 5.0 mph 94% 0.00 in
06:23 60.3 °F 58.6 °F 29.71 in WNW 2.0 mph 4.0 mph 94% 0.00 in
06:28 60.3 °F 58.6 °F 29.71 in WNW 4.0 mph 4.0 mph 94% 0.00 in
06:33 60.2 °F 58.5 °F 29.72 in WNW 2.0 mph 5.0 mph 94% 0.00 in
06:38 60.2 °F 58.5 °F 29.72 in NW 3.0 mph 5.0 mph 94% 0.00 in
06:43 60.2 °F 58.5 °F 29.73 in WNW 4.0 mph 6.0 mph 94% 0.00 in
06:48 60.2 °F 58.5 °F 29.73 in West 7.0 mph 8.0 mph 94% 0.00 in
06:53 60.1 °F 58.4 °F 29.73 in WNW 5.0 mph 8.0 mph 94% 0.00 in
06:58 60.1 °F 58.4 °F 29.73 in WNW 2.0 mph 7.0 mph 94% 0.00 in
07:03 60.1 °F 58.4 °F 29.73 in WNW 2.0 mph 6.0 mph 94% 0.00 in
07:08 60.0 °F 58.3 °F 29.74 in WNW 6.0 mph 6.0 mph 94% 0.00 in
07:13 60.0 °F 58.3 °F 29.74 in WNW 2.0 mph 6.0 mph 94% 0.00 in
07:18 59.9 °F 58.2 °F 29.74 in WNW 5.0 mph 8.0 mph 94% 0.00 in
07:23 59.8 °F 58.1 °F 29.74 in WNW 4.0 mph 9.0 mph 94% 0.00 in
07:28 59.8 °F 57.8 °F 29.75 in WNW 4.0 mph 6.0 mph 93% 0.00 in
07:33 59.8 °F 57.8 °F 29.75 in WNW 4.0 mph 9.0 mph 93% 0.00 in
07:38 59.9 °F 57.9 °F 29.75 in WNW 3.0 mph 7.0 mph 93% 0.00 in
07:43 59.9 °F 57.9 °F 29.75 in WNW 5.0 mph 6.0 mph 93% 0.00 in
07:48 60.0 °F 58.0 °F 29.75 in NW 3.0 mph 6.0 mph 93% 0.00 in
07:53 59.9 °F 57.9 °F 29.75 in WNW 6.0 mph 11.0 mph 93% 0.00 in
07:58 59.9 °F 57.9 °F 29.76 in WNW 6.0 mph 8.0 mph 93% 0.00 in
08:03 60.0 °F 58.0 °F 29.76 in NW 4.0 mph 6.0 mph 93% 0.00 in
08:08 60.1 °F 58.1 °F 29.76 in West 4.0 mph 7.0 mph 93% 0.00 in
08:13 59.8 °F 57.5 °F 29.77 in WNW 8.0 mph 11.0 mph 92% 0.00 in
08:18 59.5 °F 57.2 °F 29.77 in WNW 8.0 mph 11.0 mph 92% 0.00 in
08:24 59.1 °F 56.8 °F 29.78 in WNW 11.0 mph 11.0 mph 92% 0.00 in
08:29 59.0 °F 56.4 °F 29.78 in WNW 11.0 mph 13.0 mph 91% 0.00 in
08:34 58.9 °F 56.6 °F 29.78 in NW 7.0 mph 13.0 mph 92% 0.00 in
08:39 58.8 °F 56.2 °F 29.78 in WNW 8.0 mph 14.0 mph 91% 0.00 in
08:44 58.6 °F 56.0 °F 29.79 in WNW 11.0 mph 11.0 mph 91% 0.00 in
08:49 58.4 °F 55.8 °F 29.79 in WNW 6.0 mph 11.0 mph 91% 0.00 in
08:54 58.4 °F 55.8 °F 29.80 in WNW 7.0 mph 11.0 mph 91% 0.00 in
08:59 58.2 °F 55.3 °F 29.80 in West 4.0 mph 12.0 mph 90% 0.00 in
09:04 57.9 °F 55.0 °F 29.81 in WSW 9.0 mph 9.0 mph 90% 0.00 in
09:09 57.6 °F 54.7 °F 29.81 in WNW 4.0